x

Upper Potomac, Md (44061) Weather Station

6:40pm - Wed 22nd Oct 2014 All times are EDT. -4 hours from GMT.

  • Wind
    9mph, 13mph gusts
  • Air Temp 56°f
  • Sea Pressure 1013.3mb
  • Upper Potomac, Md
  • Upper Potomac, Md

More Historic Weather Station data

Upgrade to MSW Pro to gain access to the past 30 days of data for over 8000 Wavebouys and Weather Stations around the globe.

Join Pro

Comparision Forecast

View Surf forecast
   
Wed 10/22 6:40pm 9 13 mph 1013.3mb - 56f
6:30pm 9 18 mph 1013.3mb - 56f
6:20pm 9 13 mph 1013.3mb - 56f
6:10pm 7 11 mph 1013.2mb - 56f
6:00pm 9 11 mph 1013.1mb 61f 55f
5:50pm 9 16 mph 1013.1mb - 55f
5:40pm 11 16 mph 1013mb - 55f
5:30pm 9 16 mph 1013mb - 55f
5:20pm 9 16 mph 1013mb - 55f
5:10pm 9 13 mph 1013mb - 55f
5:00pm 11 16 mph 1013.1mb 61f 55f
4:50pm 11 18 mph 1013.1mb - 55f
4:40pm 9 13 mph 1013.1mb - 55f
4:30pm 11 13 mph 1013.1mb - 55f
4:20pm 11 18 mph 1013.1mb - 55f
4:10pm 11 16 mph 1013.1mb - 55f
4:00pm 9 18 mph 1013.1mb 61f 55f
3:50pm 11 18 mph 1013.1mb - 56f
3:40pm 13 20 mph 1013.1mb - 56f
3:30pm 11 20 mph 1013.1mb - 55f
3:20pm 11 22 mph 1013mb - 55f
3:10pm 13 22 mph 1013.1mb - 55f
3:00pm 13 22 mph 1013.1mb 61f 55f
2:50pm 13 22 mph 1013mb - 55f
2:40pm 13 22 mph 1013.1mb - 55f
2:30pm 13 20 mph 1013.1mb - 55f
2:20pm 13 25 mph 1013.1mb - 55f
2:10pm 13 22 mph 1013.2mb - 55f
2:00pm 13 20 mph 1013.2mb 62f 55f
1:50pm 13 20 mph 1013.2mb - 55f
1:40pm 13 20 mph 1013.1mb - 55f
1:30pm 13 18 mph 1013.1mb - 55f
1:20pm 13 20 mph 1013.2mb - 55f
1:10pm 13 20 mph 1013.3mb - 55f
1:00pm 16 22 mph 1013.4mb 61f 56f
12:50pm 13 22 mph 1013.4mb - 56f
12:40pm 11 18 mph 1013.4mb - 56f
12:30pm 11 16 mph 1013.4mb - 56f
12:20pm 11 18 mph 1013.4mb - 55f
12:10pm 11 16 mph 1013.4mb - 55f
12:00pm 11 18 mph 1013.4mb 62f 55f
11:50am 11 16 mph 1013.2mb - 55f
11:40am 11 16 mph 1013.1mb - 55f
11:30am 11 16 mph 1013.1mb - 55f
11:20am 11 18 mph 1013mb - 55f
11:10am 11 16 mph 1013.1mb - 55f
11:00am 13 18 mph 1013.1mb 62f 55f
10:50am 11 18 mph 1013.1mb - 55f
10:40am 11 13 mph 1013mb - 55f
10:30am 9 16 mph 1013.1mb - 55f
10:20am 11 16 mph 1013.1mb - 55f
10:10am 11 16 mph 1013mb - 55f
10:00am 11 16 mph 1013mb 62f 55f
9:50am 11 16 mph 1012.8mb - 55f
9:40am 9 13 mph 1012.8mb - 55f
9:30am 9 13 mph 1012.8mb - 55f
9:20am 11 16 mph 1012.7mb - 55f
9:10am 11 18 mph 1012.6mb - 54f
9:00am 9 16 mph 1012.6mb 62f 54f
8:50am 11 16 mph 1012.6mb - 55f
8:40am 9 16 mph 1012.5mb - 55f
8:30am 11 16 mph 1012.3mb - 55f
8:20am 9 16 mph 1012.2mb - 55f
8:10am 11 16 mph 1012.1mb - 55f
8:00am 9 16 mph 1012mb 62f 55f
7:50am 11 18 mph 1011.9mb - 55f
7:40am 11 16 mph 1011.9mb - 55f
7:30am 11 16 mph 1011.9mb - 55f
7:20am 11 18 mph 1011.8mb - 55f
7:10am 9 13 mph 1011.8mb - 55f
7:00am 11 16 mph 1011.7mb 62f 55f
6:50am 9 13 mph 1011.6mb - 55f
6:40am 9 13 mph 1011.4mb - 54f
6:30am 9 11 mph 1011.3mb - 54f
6:20am 9 11 mph 1011.2mb - 54f
6:10am 9 13 mph 1011.2mb - 54f
6:00am 9 16 mph 1011.1mb 62f 54f
5:50am 9 13 mph 1011.1mb - 54f
5:40am 9 13 mph 1011mb - 54f
5:30am 9 16 mph 1011mb - 54f
5:20am 9 13 mph 1010.9mb - 54f
5:10am 9 13 mph 1010.9mb - 54f
5:00am 9 13 mph 1010.8mb 62f 54f
4:50am 11 16 mph 1010.7mb - 54f
4:30am 11 16 mph 1010.7mb - 54f
4:20am 9 13 mph 1010.7mb - 54f
4:10am 9 13 mph 1010.8mb - 54f
4:00am 7 11 mph 1010.9mb 62f 54f
3:50am 7 11 mph 1010.9mb - 54f
3:40am 7 11 mph 1010.9mb - 54f
3:30am 7 11 mph 1011mb - 54f
3:20am 9 13 mph 1011mb - 54f
3:10am 9 13 mph 1011mb - 54f
3:00am 7 11 mph 1011mb 62f 54f
2:50am 9 11 mph 1011.1mb - 54f
2:40am 7 9 mph 1011.2mb - 54f
2:30am 7 11 mph 1011.3mb - 54f
2:20am 7 9 mph 1011.4mb - 54f
2:10am 7 9 mph 1011.4mb - 54f
2:00am 7 11 mph 1011.4mb 62f 54f
1:50am 7 11 mph 1011.5mb - 54f
1:40am 7 9 mph 1011.5mb - 54f
1:30am 7 11 mph 1011.5mb - 54f
1:20am 9 11 mph 1011.6mb - 54f
1:10am 7 9 mph 1011.7mb - 54f
1:00am 7 9 mph 1011.8mb 62f 54f
12:50am 7 9 mph 1011.8mb - 54f
12:40am 7 9 mph 1011.8mb - 55f
12:30am 7 9 mph 1011.9mb - 55f
12:20am 9 11 mph 1012mb - 55f
12:10am 7 11 mph 1012mb - 55f
12:00am 9 13 mph 1011.9mb 62f 55f
Tue 10/21 11:50pm 9 11 mph 1012mb - 55f
11:40pm 11 16 mph 1012.1mb - 55f
11:30pm 11 16 mph 1012.2mb - 55f
11:20pm 13 18 mph 1012.3mb - 55f
11:10pm 13 16 mph 1012.4mb - 56f
11:00pm 11 16 mph 1012.7mb 63f 55f
10:50pm 9 13 mph 1012.8mb - 55f
10:40pm 7 13 mph 1012.9mb - 55f
10:30pm 7 11 mph 1013mb - 55f
10:20pm 7 11 mph 1013mb - 55f
10:10pm 9 11 mph 1012.9mb - 55f
10:00pm 9 13 mph 1012.9mb 63f 56f
9:50pm 9 11 mph 1012.8mb - 56f
9:40pm 9 11 mph 1012.7mb - 56f
9:30pm 7 11 mph 1012.5mb - 56f
9:20pm 7 9 mph 1012.3mb - 56f
9:10pm 7 11 mph 1012.1mb - 56f
9:00pm 7 9 mph 1012mb 63f 57f
8:50pm 4 7 mph 1011.9mb - 57f
8:40pm 4 7 mph 1011.8mb - 57f
8:30pm 7 9 mph 1011.8mb - 57f
8:20pm 7 9 mph 1011.8mb - 57f
8:10pm 7 9 mph 1011.7mb - 58f
8:00pm 7 11 mph 1011.6mb 63f 58f
7:50pm 7 9 mph 1011.5mb - 58f
7:40pm 7 9 mph 1011.3mb - 58f
7:30pm 7 11 mph 1011.2mb - 58f
7:20pm 7 11 mph 1011mb - 58f
7:10pm 7 11 mph 1010.9mb - 58f
7:00pm 7 11 mph 1010.8mb 63f 58f
6:50pm 7 16 mph 1010.7mb - 59f
6:40pm 9 11 mph 1010.6mb - 59f
6:30pm 9 13 mph 1010.6mb - 60f
6:20pm 7 13 mph 1010.3mb - 61f
6:10pm 4 9 mph 1010mb - 61f
6:00pm 7 9 mph 1009.7mb 63f 62f
5:50pm 7 9 mph 1009.5mb - 62f
5:40pm 4 7 mph 1009.4mb - 61f
5:30pm 4 7 mph 1009.2mb - 62f
5:20pm 7 11 mph 1009.1mb - 61f
5:10pm 9 13 mph 1009.1mb - 62f
5:00pm 9 13 mph 1009.3mb 63f 62f
4:50pm 11 16 mph 1009.1mb - 63f
4:40pm 13 20 mph 1009mb - 65f
4:30pm 4 13 mph 1008.9mb - 67f
4:20pm 2 4 mph 1008.8mb - 67f
4:10pm 2
mph
1008.8mb - 67f
4:00pm 2
mph
1008.7mb 64f 67f
3:50pm 2 4 mph 1008.7mb - 67f
3:40pm  -  2 mph 1008.8mb - 68f
3:30pm 2 4 mph 1008.8mb - 68f
3:20pm 2 4 mph 1008.8mb - 68f
3:10pm  -  2 mph 1008.8mb - 68f
3:00pm 2 4 mph 1009mb 63f 67f
2:50pm 4 7 mph 1009mb - 67f
2:40pm 4
mph
1009.1mb - 66f
2:30pm 4 7 mph 1009.2mb - 66f
2:20pm 2 4 mph 1009.3mb - 66f
2:10pm 4
mph
1009.4mb - 66f
2:00pm 2 4 mph 1009.4mb 63f 66f
1:50pm 4
mph
1009.5mb - 66f
1:40pm 7 9 mph 1009.5mb - 66f
1:30pm 4 7 mph 1009.7mb - 65f
1:20pm 7
mph
1009.8mb - 65f
1:10pm 4 7 mph 1009.9mb - 66f
1:00pm 2 4 mph 1010mb 63f 66f
12:50pm 4
mph
1010.3mb - 65f
12:40pm 4 7 mph 1010.4mb - 65f
12:30pm 4
mph
1010.6mb - 65f
12:20pm  -  2 mph 1010.8mb - 64f
12:10pm  -  2 mph 1010.9mb - 64f
12:00pm 2
mph
1010.9mb 63f 64f
11:50am  -  2 mph 1011mb - 63f
11:40am  -  2 mph 1011.1mb - 62f
11:30am  -  2 mph 1011.1mb - 62f
11:20am 2
mph
1011.2mb - 61f
11:10am 2
mph
1011.2mb - 61f
11:00am 2 4 mph 1011.3mb 63f 60f
10:50am 2 4 mph 1011.5mb - 60f
10:40am 2 4 mph 1011.5mb - 59f
10:30am 2 4 mph 1011.6mb - 59f
10:20am 2 4 mph 1011.7mb - 59f
10:10am 2 4 mph 1011.8mb - 58f
10:00am 2
mph
1011.8mb 62f 58f
9:50am 2
mph
1011.8mb - 58f
9:40am 2 4 mph 1011.7mb - 58f
9:30am 2 4 mph 1011.7mb - 57f
9:20am 2 4 mph 1011.8mb - 56f
9:10am 2 4 mph 1011.7mb - 56f
9:00am 4
mph
1011.7mb 62f 56f
8:50am 4
mph
1011.6mb - 56f
8:40am 4
mph
1011.5mb - 56f
8:30am 4
mph
1011.5mb - 55f
8:20am 4 7 mph 1011.4mb - 55f
8:10am 4 7 mph 1011.2mb - 55f
8:00am 2 4 mph 1011.1mb 62f 55f
7:50am 2
mph
1011mb - 56f
7:40am 2
mph
1010.9mb - 56f
7:30am 4
mph
1011mb - 56f
7:20am 4 7 mph 1011mb - 56f
7:10am 2 4 mph 1010.8mb - 56f
7:00am 4
mph
1010.8mb 62f 56f
6:50am 4 7 mph 1010.8mb - 56f
6:40am 4 7 mph 1010.8mb - 56f
6:30am 4 7 mph 1010.8mb - 56f
6:20am 2 4 mph 1010.8mb - 56f
6:10am 4
mph
1010.9mb - 56f
6:00am 4 7 mph 1010.8mb 62f 57f
5:50am 4 7 mph 1010.8mb - 57f
5:40am 4
mph
1010.8mb - 57f
5:30am 4 7 mph 1010.9mb - 57f
5:20am 4 7 mph 1010.9mb - 58f
5:10am 7 9 mph 1011.1mb - 58f
5:00am 7 9 mph 1011.2mb 62f 58f
4:50am 7
mph
1011mb - 58f
4:40am 4 7 mph 1011mb - 58f
4:30am 4 7 mph 1011.1mb - 58f
4:20am 7 9 mph 1011.2mb - 59f
4:10am 9 11 mph 1011.1mb - 59f
4:00am 7 9 mph 1011.2mb 62f 59f
3:50am 9
mph
1011.3mb - 59f
3:40am 9 11 mph 1011.4mb - 59f
3:30am 7 9 mph 1011.4mb - 59f
3:20am 7 9 mph 1011.5mb - 59f
3:10am 7 9 mph 1011.5mb - 59f
3:00am 4 7 mph 1011.7mb 62f 58f
2:50am 7
mph
1011.8mb - 59f
2:40am 7 9 mph 1011.8mb - 59f
2:30am 7 9 mph 1011.8mb - 59f
2:20am 7 9 mph 1012mb - 59f
2:10am 7 9 mph 1012.1mb - 59f
2:00am 7 9 mph 1012.2mb 63f 58f
1:50am 7
mph
1012.2mb - 58f
1:40am 7 9 mph 1012.3mb - 58f
1:30am 7
mph
1012.6mb - 58f
1:20am 7
mph
1012.7mb - 58f
1:10am 7 9 mph 1012.8mb - 58f
1:00am 7
mph
1012.9mb 62f 58f
12:50am 7 9 mph 1013mb - 58f
12:40am 4 7 mph 1013.1mb - 58f
12:30am 7
mph
1013.3mb - 58f
12:20am 4 7 mph 1013.3mb - 58f
12:10am 4 7 mph 1013.4mb - 58f
12:00am 4
mph
1013.6mb 62f 59f
Mon 10/20 11:50pm 4
mph
1013.7mb - 58f
11:40pm 4
mph
1014mb - 58f
11:30pm 7
mph
1014.2mb - 58f
11:20pm 7 9 mph 1014.3mb - 59f
11:10pm 7
mph
1014.4mb - 59f
11:00pm 7 9 mph 1014.3mb 62f 59f
10:50pm 7 9 mph 1014.3mb - 59f
10:40pm 9 11 mph 1014.2mb - 60f
10:30pm 9 11 mph 1014.2mb - 60f
10:20pm 9 11 mph 1014.3mb - 60f
10:10pm 7 9 mph 1014.4mb - 60f
10:00pm 7 9 mph 1014.3mb 62f 60f
9:50pm 7 9 mph 1014.2mb - 60f
9:40pm 7 9 mph 1014.2mb - 60f
9:30pm 7 9 mph 1014.2mb - 60f
9:20pm 7 9 mph 1014.2mb - 60f
9:10pm 7 9 mph 1014.1mb - 60f
9:00pm 9 11 mph 1014.2mb 63f 61f
8:50pm 9 11 mph 1014.2mb - 61f
8:40pm 9 11 mph 1014.1mb - 61f
8:30pm 9 11 mph 1014mb - 61f
8:20pm 9 13 mph 1014mb - 62f
8:10pm 9 13 mph 1014mb - 62f
8:00pm 7 9 mph 1014mb 63f 62f
7:50pm 9 11 mph 1014mb - 62f
7:40pm 7 9 mph 1014mb - 63f
7:30pm 7 11 mph 1014mb - 63f
7:20pm 4 7 mph 1013.9mb - 63f
7:10pm 7
mph
1013.9mb - 63f
7:00pm 7
mph
1013.8mb 63f 64f
6:50pm 7
mph
1013.8mb - 63f
6:40pm 4 7 mph 1013.8mb - 64f
6:30pm 4 7 mph 1013.7mb - 64f
6:20pm 4
mph
1013.7mb - 64f
6:10pm 4
mph
1013.7mb - 64f
6:00pm 2 4 mph 1013.7mb 62f 64f
5:50pm 4 7 mph 1013.5mb - 65f
5:40pm 7 9 mph 1013.6mb - 65f
5:30pm 7 11 mph 1013.6mb - 65f
5:20pm 11 13 mph 1013.5mb - 66f
5:10pm 9 11 mph 1013.6mb - 66f
5:00pm 11 16 mph 1013.6mb 63f 66f
4:50pm 9 13 mph 1013.6mb - 66f
4:40pm 9 13 mph 1013.7mb - 66f
4:30pm 11 16 mph 1013.7mb - 66f
4:20pm 13 18 mph 1013.8mb - 66f
4:10pm 13 20 mph 1013.9mb - 66f
4:00pm 13 18 mph 1013.9mb 62f 67f
3:50pm 13 18 mph 1014mb - 66f
3:40pm 13 20 mph 1014mb - 66f
3:30pm 13 18 mph 1014.1mb - 66f
3:20pm 16 20 mph 1014.1mb - 66f
3:10pm 18 22 mph 1014.3mb - 65f
3:00pm 16 22 mph 1014.3mb 63f 65f
2:50pm 13 18 mph 1014.4mb - 65f
2:40pm 13 18 mph 1014.6mb - 65f
2:30pm 16 20 mph 1014.7mb - 64f
2:20pm 16 20 mph 1014.9mb - 64f
2:10pm 18 25 mph 1015mb - 64f
2:00pm 16 20 mph 1015.2mb 62f 64f
1:50pm 18 25 mph 1015.4mb - 64f
1:40pm 16 22 mph 1015.6mb - 63f
1:30pm 16 20 mph 1015.7mb - 63f
1:20pm 18 22 mph 1015.9mb - 63f
1:10pm 13 18 mph 1016.2mb - 62f
1:00pm 16 20 mph 1016.4mb 62f 62f
12:50pm 18 25 mph 1016.6mb - 62f
12:40pm 16 18 mph 1017mb - 62f
12:30pm 16 22 mph 1017.3mb - 62f
12:20pm 13 20 mph 1017.5mb - 61f
12:10pm 13 18 mph 1017.7mb - 61f
12:00pm 13 20 mph 1017.9mb 62f 60f
11:50am 16 18 mph 1018mb - 60f
11:40am 16 22 mph 1018.3mb - 59f
11:30am 16 20 mph 1018.5mb - 59f
11:20am 13 16 mph 1018.7mb - 59f
11:10am 16 18 mph 1018.8mb - 58f
11:00am 16 22 mph 1019mb 62f 58f
10:50am 16 20 mph 1019.2mb - 57f
10:40am 11 13 mph 1019.6mb - 56f
10:30am 11 13 mph 1019.8mb - 55f
10:20am 9 11 mph 1019.8mb - 54f
10:10am 9 13 mph 1019.8mb - 54f
10:00am 11 13 mph 1020mb 62f 53f
9:50am 7 11 mph 1020.2mb - 52f
9:40am 7 9 mph 1020.3mb - 51f
9:30am 7 11 mph 1020.2mb - 51f
9:20am 9 11 mph 1020.4mb - 50f
9:10am 7 9 mph 1020.3mb - 50f
9:00am 7 9 mph 1020.2mb 62f 50f
8:50am 4 7 mph 1020.1mb - 50f
8:40am 4 7 mph 1020mb - 49f
8:30am 4 7 mph 1019.9mb - 49f
8:20am 4 7 mph 1019.9mb - 49f
8:10am 2 4 mph 1019.8mb - 49f
8:00am 2 4 mph 1019.8mb 62f 48f
7:50am 4 7 mph 1019.8mb - 48f
7:40am 2 4 mph 1019.6mb - 47f
7:30am 4
mph
1019.6mb - 47f
7:20am 4
mph
1019.6mb - 47f
7:10am 4 7 mph 1019.6mb - 47f
7:00am 4
mph
1019.6mb 62f 47f
6:50am 4 7 mph 1019.7mb - 47f
6:40am 2 4 mph 1019.7mb - 48f
6:30am 4
mph
1019.7mb - 48f
6:20am 2 4 mph 1019.6mb - 48f
6:10am 2 4 mph 1019.4mb - 48f
6:00am 2 4 mph 1019.4mb 62f 48f
5:50am 2 4 mph 1019.4mb - 48f
5:40am 2 4 mph 1019.5mb - 48f
5:30am 4
mph
1019.5mb - 48f
5:20am 2 4 mph 1019.4mb - 48f
5:10am 4
mph
1019.3mb - 48f
5:00am 2 4 mph 1019.4mb 62f 48f
4:50am 2 4 mph 1019.5mb - 48f
4:40am 2 4 mph 1019.3mb - 48f
4:30am 2 4 mph 1019.3mb - 48f
4:20am 4 7 mph 1019.3mb - 49f
4:10am 2 4 mph 1019.2mb - 49f
4:00am 2
mph
1019.2mb 63f 49f
3:50am 2 4 mph 1019.2mb - 49f
3:40am 2 4 mph 1019.2mb - 48f
3:30am 2 4 mph 1019.3mb - 48f
3:20am 4
mph
1019.4mb - 47f
3:10am 4 7 mph 1019.5mb - 47f
3:00am 4 7 mph 1019.4mb 63f 47f
2:50am 4 7 mph 1019.6mb - 48f
2:40am 7 9 mph 1019.5mb - 49f
2:30am 4 7 mph 1019.4mb - 49f
2:20am 4 7 mph 1019.4mb - 49f
2:10am 4 7 mph 1019.3mb - 50f
2:00am 2 4 mph 1019.3mb 63f 51f
1:50am 2
mph
1019.4mb - 51f
1:40am 4
mph
1019.4mb - 51f
1:30am 4 7 mph 1019.3mb - 51f
1:20am 4 9 mph 1019.3mb - 51f
1:10am  -  4 mph 1019.5mb - 51f
1:00am 2
mph
1019.5mb 63f 51f
12:50am 2 4 mph 1019.5mb - 51f
12:40am 2 4 mph 1019.5mb - 51f
12:30am 2 4 mph 1019.6mb - 51f
12:20am 4 7 mph 1019.7mb - 51f
12:10am 4 9 mph 1019.7mb - 51f
12:00am 2 4 mph 1019.7mb 63f 51f
Sun 10/19 11:50pm 4 7 mph 1019.7mb - 51f
11:30pm 4
mph
1019.9mb - 52f
11:20pm 4
mph
1019.9mb - 52f
11:10pm 4
mph
1019.9mb - 52f
11:00pm 4 7 mph 1019.9mb 63f 52f
10:50pm 4 7 mph 1019.8mb - 52f
10:40pm 4 7 mph 1019.9mb - 52f
10:30pm 4 7 mph 1019.8mb - 53f
10:20pm 4 7 mph 1019.6mb - 54f
10:10pm 4 7 mph 1019.5mb - 54f
10:00pm 4 7 mph 1019.3mb 63f 54f
9:50pm 4
mph
1019.2mb - 55f
9:40pm 4 7 mph 1019.2mb - 56f
9:30pm 4 9 mph 1019mb - 56f
9:20pm 4 7 mph 1018.9mb - 57f
9:10pm 7 9 mph 1018.8mb - 57f
9:00pm 7 9 mph 1018.8mb 63f 57f
8:50pm 4 9 mph 1018.7mb - 56f
8:40pm 4 7 mph 1018.6mb - 56f
8:30pm 2 4 mph 1018.5mb - 57f
8:20pm 4 7 mph 1018.4mb - 57f
8:10pm 4 7 mph 1018.4mb - 57f
8:00pm 4 7 mph 1018.4mb 63f 57f
7:50pm 4
mph
1018.3mb - 57f
7:40pm 4 7 mph 1018.3mb - 58f
7:30pm 4 9 mph 1018.1mb - 58f
7:20pm 4 7 mph 1018mb - 58f
7:10pm 4 7 mph 1017.9mb - 58f
7:00pm 4 9 mph 1017.9mb 64f 58f
6:50pm 7 9 mph 1017.8mb - 58f
6:40pm 7 9 mph 1017.7mb - 58f
6:30pm 9 16 mph 1017.7mb - 59f
6:20pm 9 16 mph 1017.6mb - 59f
6:10pm 9 13 mph 1017.4mb - 59f
6:00pm 9 18 mph 1017.4mb 64f 60f
5:50pm 11 16 mph 1017.3mb - 60f
5:40pm 11 16 mph 1017.3mb - 60f
5:30pm 13 18 mph 1017.2mb - 60f
5:20pm 13 22 mph 1017.1mb - 60f
5:10pm 11 18 mph 1017mb - 60f
5:00pm 13 18 mph 1017mb 64f 60f
4:50pm 11 20 mph 1016.9mb - 60f
4:40pm 11 20 mph 1016.9mb - 60f
4:30pm 13 20 mph 1017mb - 60f
4:20pm 13 20 mph 1016.9mb - 59f
4:10pm 11 22 mph 1016.9mb - 59f
4:00pm 13 20 mph 1016.9mb 64f 59f
3:50pm 11 16 mph 1016.9mb - 59f
3:40pm 13 20 mph 1016.8mb - 58f
3:30pm 11 18 mph 1016.8mb - 58f
3:20pm 11 18 mph 1016.9mb - 58f
3:10pm 11 18 mph 1016.9mb - 58f
3:00pm 13 22 mph 1016.9mb 64f 57f
2:50pm 16 22 mph 1016.9mb - 57f
2:40pm 13 20 mph 1017mb - 57f
2:30pm 13 20 mph 1017.2mb - 56f
2:20pm 13 20 mph 1017.2mb - 56f
2:10pm 16 25 mph 1017.3mb - 56f
2:00pm 13 22 mph 1017.3mb 64f 55f
1:50pm 16 22 mph 1017.5mb - 55f
1:40pm 16 27 mph 1017.6mb - 55f
1:30pm 13 25 mph 1017.6mb - 55f
1:20pm 13 20 mph 1017.7mb - 55f
1:10pm 13 20 mph 1017.9mb - 54f
1:00pm 13 25 mph 1018mb 64f 54f
12:50pm 13 22 mph 1018.1mb - 53f
12:40pm 16 22 mph 1018.2mb - 53f
12:30pm 13 25 mph 1018.2mb - 53f
12:20pm 13 25 mph 1018.3mb - 53f
12:10pm 11 20 mph 1018.3mb - 53f
12:00pm 13 20 mph 1018.3mb 64f 52f
11:50am 13 25 mph 1018.3mb - 52f
11:40am 16 22 mph 1018.3mb - 51f
11:30am 18 22 mph 1018.3mb - 51f
11:20am 13 22 mph 1018.2mb - 51f
11:10am 16 25 mph 1018.2mb - 51f
11:00am 13 22 mph 1018.2mb 64f 51f
10:50am 16 20 mph 1018.1mb - 51f
10:40am 13 29 mph 1018mb - 51f
10:30am 13 20 mph 1018mb - 51f
10:20am 16 25 mph 1017.9mb - 51f
10:10am 16 25 mph 1017.8mb - 50f
10:00am 16 25 mph 1017.9mb 64f 51f
9:50am 16 25 mph 1017.8mb - 50f
9:40am 16 27 mph 1017.7mb - 50f
9:30am 18 27 mph 1017.7mb - 51f
9:20am 18 29 mph 1017.5mb - 52f
9:10am 16 25 mph 1017.3mb - 52f
9:00am 13 27 mph 1017.2mb 64f 52f
8:50am 13 27 mph 1017mb - 52f
8:40am 13 25 mph 1016.8mb - 52f
8:30am 11 22 mph 1016.6mb - 52f
8:20am 13 22 mph 1016.4mb - 52f
8:10am 13 20 mph 1016.2mb - 52f
8:00am 11 18 mph 1016mb 65f 52f
7:50am 9 16 mph 1015.8mb - 52f
7:40am 13 20 mph 1015.6mb - 52f
7:30am 16 25 mph 1015.3mb - 52f
7:20am 16 25 mph 1015mb - 53f
7:10am 13 20 mph 1014.8mb - 53f
7:00am 16 22 mph 1014.6mb 65f 53f
6:50am 13 20 mph 1014.4mb - 53f
6:40am 13 20 mph 1014.4mb - 53f
6:30am 13 25 mph 1014.2mb - 53f
6:20am 13 20 mph 1014mb - 53f
6:10am 11 25 mph 1013.9mb - 53f
6:00am 11 20 mph 1013.7mb 65f 53f
5:50am 13 22 mph 1013.5mb - 53f
5:40am 11 18 mph 1013.4mb - 53f
5:30am 9 13 mph 1013.3mb - 53f
5:20am 9 16 mph 1013.1mb - 54f
5:10am 11 16 mph 1012.9mb - 54f
5:00am 11 16 mph 1012.8mb 65f 54f
4:50am 11 22 mph 1012.7mb - 54f
4:40am 11 20 mph 1012.6mb - 55f
4:30am 11 20 mph 1012.3mb - 55f
4:20am 11 20 mph 1012.2mb - 55f
4:10am 11 16 mph 1012.2mb - 55f
4:00am 11 16 mph 1012.1mb 65f 55f
3:50am 9 16 mph 1012.1mb - 55f
3:40am 7 11 mph 1012mb - 55f
3:30am 9 13 mph 1012.1mb - 55f
3:20am 7 13 mph 1012.1mb - 55f
3:10am 9 13 mph 1012mb - 55f
3:00am 9 13 mph 1012mb 65f 55f
2:50am 9 13 mph 1012mb - 55f
2:40am 9 16 mph 1011.9mb - 55f
2:30am 7 13 mph 1011.8mb - 55f
2:20am 9 11 mph 1011.7mb - 55f
2:10am 9 13 mph 1011.6mb - 55f
2:00am 9 13 mph 1011.5mb 65f 55f
1:50am 9 13 mph 1011.4mb - 55f
1:40am 9 13 mph 1011.4mb - 55f
1:30am 9 18 mph 1011.4mb - 54f
1:20am 4 9 mph 1011.4mb - 55f
1:10am 7 16 mph 1011.4mb - 55f
1:00am 9 16 mph 1011.3mb 65f 55f
12:50am 9 16 mph 1011.3mb - 55f
12:40am 9 18 mph 1011.3mb - 55f
12:30am 9 16 mph 1011.3mb - 55f
12:20am 9 13 mph 1011.4mb - 55f
12:10am 9 16 mph 1011.5mb - 55f
12:00am 11 16 mph 1011.5mb 65f 55f
Sat 10/18 11:50pm 9 13 mph 1011.6mb - 55f
11:40pm 7 13 mph 1011.6mb - 55f
11:30pm 11 16 mph 1011.5mb - 55f